Details for Ryanair at EPWR




Go Back


Latest METAR
Local Time

EPWR 180600Z 30010KT CAVOK 20/15 Q1019
18/08/2018, 08:29:15

Description
Results
Ryanair Logo
Number of Pilots based at EPWR
0 Pilots Based here
Number of Ryanair Flights Departed from EPWR
1 Flights Departed
Number of Ryanair Flights Arrived at EPWR
2 Flights Arrived
Number of Ryanair Schedules Departing from EPWR
53 Schedules
Number of Ryanair Schedules Arriving at EPWR
54 Schedules
Number of Ryanair Schedules Departing from EPWR availible today
12 Schedules Today
Number of Ryanair Schedules Arriving at EPWR availible today
12 Schedules Today
Average Landing Rate at EPWR
-205 fpm
Ryanair Average Landing Rate at EPWR
-94 fpm
Total Fuel Purchased at EPWR by Ryanair
2,705.68 kgs / 5,964.94 lbs

Pilots Based at EPWR


Pilot ID
Pilot Name
Pilot Rank
No. of Flights
No. of Flying Hours
There are no pilots assigned to this hub!   Will you be the first?
Content